STARLINK-35102

Last updated on Mon Oct 20 2025 00:02:07 GMT+0000 (Coordinated Universal Time)

1 65839U 25221S 25292.25002315 -.01554033 00000+0 -28549-1 0 9992 2 65839 53.1602 27.8002 0001108 90.5984 261.1322 15.51579316 4435
UTC large
Height (km)
Speed (km/s)
/
Latitude / Longitude
Inclination (degrees)
Orbital Period (minutes)
Azimuth
Elevation
Range (km)
Doppler Factor

Next 0 passes for location: London (51.5072 / 0.1276)

Sorry there are no passes over London.